| time (UTC) | temp F | wind direction | speed knots | gust knots | rain 1hr in | rain 24hr in | rain mn in | humidity % | barometer mb |
| 20260507104957 | 41 | 345 | 0.0 | 1.7 | 0.00 | 0.00 | 0.00 | 87 | 1018.1 |
| 20260507104455 | 41 | 345 | 0.0 | 1.7 | 0.00 | 0.00 | 0.00 | 87 | 1018.1 |
| 20260507103950 | 41 | 355 | 0.0 | 0.9 | 0.00 | 0.00 | 0.00 | 87 | 1018.0 |
| 20260507103447 | 41 | 7 | 0.0 | 2.6 | 0.00 | 0.00 | 0.00 | 88 | 1018.0 |
| 20260507102943 | 41 | 355 | 0.0 | 2.6 | 0.00 | 0.00 | 0.00 | 88 | 1017.9 |
| 20260507102440 | 41 | 5 | 0.0 | 3.5 | 0.00 | 0.00 | 0.00 | 89 | 1017.9 |
| 20260507101937 | 41 | 24 | 0.0 | 2.6 | 0.00 | 0.00 | 0.00 | 89 | 1017.9 |
| 20260507101432 | 41 | 12 | 0.9 | 2.6 | 0.00 | 0.00 | 0.00 | 89 | 1018.2 |
| 20260507100928 | 41 | 0 | 0.0 | 1.7 | 0.00 | 0.00 | 0.00 | 89 | 1017.8 |
| 20260507100426 | 41 | 0 | 0.0 | 0.9 | 0.00 | 0.00 | 0.00 | 89 | 1017.9 |
| 20260507095924 | 41 | 14 | 0.9 | 1.7 | 0.00 | 0.00 | 0.00 | 89 | 1017.9 |
| 20260507095421 | 41 | 346 | 0.0 | 0.0 | 0.00 | 0.00 | 0.00 | 89 | 1017.9 |
| 20260507094918 | 41 | 346 | 0.0 | 0.9 | 0.00 | 0.00 | 0.00 | 89 | 1017.9 |
| 20260507094414 | 41 | 23 | 0.0 | 0.0 | 0.00 | 0.00 | 0.00 | 89 | 1017.9 |
| 20260507093911 | 41 | 23 | 0.0 | 0.9 | 0.00 | 0.00 | 0.00 | 89 | 1017.7 |
| 20260507093410 | 41 | 41 | 0.0 | 1.7 | 0.00 | 0.00 | 0.00 | 89 | 1017.7 |
| 20260507092908 | 41 | 353 | 0.0 | 0.0 | 0.00 | 0.00 | 0.00 | 89 | 1017.8 |
| 20260507092403 | 41 | 353 | 0.0 | 1.7 | 0.00 | 0.00 | 0.00 | 89 | 1017.7 |
| 20260507091900 | 41 | 7 | 0.0 | 0.9 | 0.00 | 0.00 | 0.00 | 89 | 1017.8 |
| 20260507091356 | 41 | 300 | 0.0 | 0.9 | 0.00 | 0.00 | 0.00 | 88 | 1017.7 |
| 20260507090852 | 41 | 15 | 0.0 | 0.0 | 0.00 | 0.00 | 0.00 | 88 | 1017.5 |
| 20260507090349 | 41 | 344 | 0.0 | 1.7 | 0.00 | 0.00 | 0.00 | 88 | 1017.5 |
| 20260507085846 | 41 | 300 | 0.0 | 0.0 | 0.00 | 0.00 | 0.00 | 88 | 1017.5 |
| 20260507085343 | 42 | 300 | 0.0 | 0.0 | 0.00 | 0.00 | 0.00 | 88 | 1017.5 |
| 20260507084840 | 42 | 300 | 0.0 | 0.0 | 0.00 | 0.00 | 0.00 | 87 | 1017.3 |
| 20260507084336 | 42 | 300 | 0.0 | 0.0 | 0.00 | 0.00 | 0.00 | 87 | 1017.3 |
| 20260507083834 | 42 | 300 | 0.0 | 2.6 | 0.00 | 0.00 | 0.00 | 87 | 1017.1 |
| 20260507083330 | 42 | 20 | 0.0 | 0.9 | 0.00 | 0.00 | 0.00 | 87 | 1017.3 |
| 20260507082826 | 42 | 0 | 0.0 | 0.9 | 0.00 | 0.00 | 0.00 | 86 | 1017.1 |
| 20260507082322 | 42 | 283 | 0.0 | 0.0 | 0.00 | 0.00 | 0.00 | 86 | 1017.0 |
| 20260507081819 | 42 | 346 | 0.0 | 1.7 | 0.00 | 0.00 | 0.00 | 86 | 1017.0 |
| 20260507081315 | 42 | 11 | 2.6 | 4.3 | 0.00 | 0.00 | 0.00 | 86 | 1016.9 |
| 20260507080812 | 42 | 0 | 0.0 | 1.7 | 0.00 | 0.00 | 0.00 | 86 | 1017.2 |
| 20260507080308 | 42 | 10 | 1.7 | 2.6 | 0.00 | 0.00 | 0.00 | 86 | 1016.9 |
| 20260507075803 | 42 | 15 | 0.0 | 0.9 | 0.00 | 0.00 | 0.00 | 87 | 1017.0 |
| 20260507075300 | 42 | 324 | 1.7 | 2.6 | 0.00 | 0.00 | 0.00 | 87 | 1016.9 |
| 20260507074756 | 43 | 4 | 1.7 | 4.3 | 0.00 | 0.00 | 0.00 | 87 | 1017.0 |
| 20260507074255 | 43 | 353 | 0.9 | 1.7 | 0.00 | 0.00 | 0.00 | 88 | 1016.7 |
| 20260507073751 | 42 | 0 | 0.0 | 1.7 | 0.00 | 0.00 | 0.00 | 89 | 1016.8 |
| 20260507073248 | 42 | 14 | 0.9 | 2.6 | 0.00 | 0.00 | 0.00 | 89 | 1016.9 |
| 20260507072746 | 42 | 15 | 0.0 | 2.6 | 0.00 | 0.00 | 0.00 | 90 | 1016.6 |
| 20260507072243 | 42 | 26 | 0.0 | 1.7 | 0.00 | 0.00 | 0.00 | 90 | 1016.6 |
| 20260507071740 | 42 | 6 | 0.0 | 1.7 | 0.00 | 0.00 | 0.00 | 90 | 1016.4 |
| 20260507071236 | 42 | 29 | 0.0 | 0.9 | 0.00 | 0.00 | 0.00 | 90 | 1016.6 |
| 20260507070733 | 42 | 26 | 0.9 | 1.7 | 0.00 | 0.00 | 0.00 | 90 | 1016.4 |
| 20260507070230 | 42 | 15 | 0.0 | 0.0 | 0.00 | 0.00 | 0.00 | 90 | 1016.6 |
| 20260507065727 | 42 | 23 | 0.0 | 0.9 | 0.00 | 0.00 | 0.00 | 90 | 1016.5 |
| 20260507065224 | 43 | 14 | 0.0 | 1.7 | 0.00 | 0.00 | 0.00 | 90 | 1016.4 |
| 20260507064721 | 43 | 15 | 0.0 | 1.7 | 0.00 | 0.00 | 0.00 | 89 | 1016.3 |
| 20260507064220 | 43 | 0 | 0.0 | 0.0 | 0.00 | 0.00 | 0.00 | 89 | 1016.2 |
| 20260507063717 | 43 | 0 | 0.0 | 0.0 | 0.00 | 0.00 | 0.00 | 89 | 1016.3 |
| 20260507063213 | 43 | 0 | 0.0 | 1.7 | 0.00 | 0.00 | 0.00 | 88 | 1016.3 |
| 20260507062710 | 43 | 26 | 1.7 | 1.7 | 0.00 | 0.00 | 0.00 | 89 | 1016.0 |
| 20260507062208 | 43 | 346 | 0.0 | 1.7 | 0.00 | 0.00 | 0.00 | 89 | 1016.1 |
| 20260507061706 | 43 | 353 | 0.0 | 1.7 | 0.00 | 0.00 | 0.00 | 88 | 1015.9 |
| 20260507061203 | 43 | 259 | 1.7 | 1.7 | 0.00 | 0.00 | 0.00 | 88 | 1015.9 |
| 20260507060701 | 43 | 246 | 0.0 | 2.6 | 0.00 | 0.00 | 0.00 | 88 | 1015.9 |
| 20260507060157 | 43 | 348 | 0.9 | 1.7 | 0.00 | 0.00 | 0.00 | 87 | 1015.6 |
| 20260507055653 | 43 | 353 | 1.7 | 2.6 | 0.00 | 0.00 | 0.00 | 87 | 1015.7 |
| 20260507055149 | 44 | 328 | 2.6 | 4.3 | 0.00 | 0.00 | 0.00 | 87 | 1015.7 |
| 20260507054645 | 44 | 348 | 1.7 | 4.3 | 0.00 | 0.00 | 0.00 | 86 | 1015.7 |
| 20260507054142 | 44 | 350 | 1.7 | 3.5 | 0.00 | 0.00 | 0.00 | 86 | 1015.5 |
| 20260507053641 | 44 | 334 | 0.0 | 1.7 | 0.00 | 0.00 | 0.00 | 85 | 1015.6 |
| 20260507053138 | 44 | 0 | 0.0 | 1.7 | 0.00 | 0.00 | 0.00 | 85 | 1015.6 |
| 20260507052637 | 44 | 66 | 0.0 | 2.6 | 0.00 | 0.00 | 0.00 | 84 | 1015.5 |
| 20260507052132 | 44 | 356 | 3.5 | 3.5 | 0.00 | 0.00 | 0.00 | 84 | 1015.3 |
| 20260507051630 | 44 | 3 | 2.6 | 3.5 | 0.00 | 0.00 | 0.00 | 83 | 1015.5 |
| 20260507051126 | 44 | 270 | 1.7 | 2.6 | 0.00 | 0.00 | 0.00 | 83 | 1015.6 |
| 20260507050624 | 45 | 263 | 0.0 | 2.6 | 0.00 | 0.00 | 0.00 | 82 | 1015.3 |
| 20260507050120 | 45 | 290 | 1.7 | 2.6 | 0.00 | 0.00 | 0.00 | 82 | 1015.4 |
| 20260507045617 | 45 | 175 | 0.0 | 1.7 | 0.00 | 0.00 | 0.00 | 81 | 1015.3 |
| 20260507045114 | 45 | 212 | 0.0 | 2.6 | 0.00 | 0.00 | 0.00 | 81 | 1015.3 |
| 20260507044611 | 45 | 318 | 2.6 | 2.6 | 0.00 | 0.00 | 0.00 | 81 | 1015.1 |
| 20260507044108 | 45 | 249 | 0.9 | 2.6 | 0.00 | 0.00 | 0.00 | 80 | 1015.1 |
| 20260507043603 | 46 | 233 | 0.0 | 2.6 | 0.00 | 0.00 | 0.00 | 80 | 1014.9 |
| 20260507043101 | 46 | 68 | 0.0 | 2.6 | 0.00 | 0.00 | 0.00 | 80 | 1015.0 |
| 20260507042556 | 46 | 180 | 2.6 | 3.5 | 0.00 | 0.00 | 0.00 | 79 | 1015.0 |
| 20260507042052 | 46 | 277 | 0.0 | 2.6 | 0.00 | 0.00 | 0.00 | 79 | 1014.9 |
| 20260507041549 | 46 | 192 | 0.0 | 2.6 | 0.00 | 0.00 | 0.00 | 78 | 1014.9 |
| 20260507041046 | 46 | 278 | 0.0 | 1.7 | 0.00 | 0.00 | 0.00 | 78 | 1014.8 |
| 20260507040543 | 46 | 276 | 0.0 | 3.5 | 0.00 | 0.00 | 0.00 | 77 | 1014.9 |
| 20260507040039 | 47 | 294 | 0.0 | 3.5 | 0.00 | 0.00 | 0.00 | 77 | 1014.5 |
| 20260507035535 | 47 | 8 | 0.0 | 2.6 | 0.00 | 0.00 | 0.00 | 76 | 1014.7 |
| 20260507035032 | 47 | 303 | 0.0 | 1.7 | 0.00 | 0.00 | 0.00 | 76 | 1014.7 |
| 20260507034528 | 47 | 264 | 0.9 | 3.5 | 0.00 | 0.00 | 0.00 | 75 | 1014.7 |
| 20260507034026 | 47 | 74 | 0.0 | 3.5 | 0.00 | 0.00 | 0.00 | 74 | 1014.6 |
| 20260507033524 | 47 | 286 | 0.0 | 2.6 | 0.00 | 0.00 | 0.00 | 73 | 1014.7 |
| 20260507033021 | 48 | 35 | 0.0 | 1.7 | 0.00 | 0.00 | 0.00 | 74 | 1014.7 |
| 20260507032518 | 48 | 297 | 0.9 | 2.6 | 0.00 | 0.00 | 0.00 | 72 | 1014.5 |
| 20260507032014 | 48 | 306 | 0.9 | 2.6 | 0.00 | 0.00 | 0.00 | 73 | 1014.7 |
| 20260507031510 | 48 | 332 | 1.7 | 3.5 | 0.00 | 0.00 | 0.00 | 73 | 1014.4 |
| 20260507031008 | 48 | 282 | 0.0 | 3.5 | 0.00 | 0.00 | 0.00 | 72 | 1014.6 |
| 20260507030505 | 48 | 277 | 0.0 | 2.6 | 0.00 | 0.00 | 0.00 | 71 | 1014.5 |
| 20260507030002 | 48 | 221 | 1.7 | 3.5 | 0.00 | 0.00 | 0.00 | 72 | 1014.5 |
| 20260507025459 | 48 | 240 | 0.9 | 4.3 | 0.00 | 0.00 | 0.00 | 72 | 1014.8 |
| 20260507024957 | 48 | 237 | 0.9 | 2.6 | 0.00 | 0.00 | 0.00 | 72 | 1014.5 |
| 20260507024454 | 49 | 270 | 1.7 | 4.3 | 0.00 | 0.00 | 0.00 | 72 | 1014.5 |
| 20260507023950 | 49 | 254 | 0.0 | 2.6 | 0.00 | 0.00 | 0.00 | 71 | 1014.4 |
| 20260507023447 | 49 | 0 | 1.7 | 3.5 | 0.00 | 0.00 | 0.00 | 70 | 1014.3 |
| 20260507022944 | 48 | 198 | 0.0 | 3.5 | 0.00 | 0.00 | 0.00 | 71 | 1014.3 |
| 20260507022441 | 49 | 270 | 0.0 | 1.7 | 0.00 | 0.00 | 0.00 | 72 | 1014.0 |
| 20260507021936 | 49 | 181 | 3.5 | 3.5 | 0.00 | 0.00 | 0.00 | 71 | 1014.5 |
| 20260507021432 | 48 | 262 | 0.9 | 4.3 | 0.00 | 0.00 | 0.00 | 72 | 1014.2 |
| 20260507020930 | 48 | 323 | 1.7 | 2.6 | 0.00 | 0.00 | 0.00 | 72 | 1014.1 |
| 20260507020426 | 48 | 203 | 0.0 | 3.5 | 0.00 | 0.00 | 0.00 | 73 | 1014.3 |
| 20260507015923 | 48 | 198 | 0.9 | 4.3 | 0.00 | 0.00 | 0.00 | 73 | 1014.1 |
| 20260507015422 | 48 | 255 | 0.0 | 1.7 | 0.00 | 0.00 | 0.00 | 71 | 1014.2 |
| 20260507014918 | 48 | 264 | 0.0 | 3.5 | 0.00 | 0.00 | 0.00 | 71 | 1014.4 |
| 20260507014414 | 48 | 4 | 1.7 | 1.7 | 0.00 | 0.00 | 0.00 | 70 | 1014.1 |
| 20260507013911 | 48 | 280 | 0.0 | 1.7 | 0.00 | 0.00 | 0.00 | 69 | 1014.1 |
| 20260507013408 | 48 | 243 | 0.0 | 2.6 | 0.00 | 0.00 | 0.00 | 70 | 1014.3 |
| 20260507012906 | 48 | 353 | 0.0 | 2.6 | 0.00 | 0.00 | 0.00 | 69 | 1014.0 |
| 20260507012402 | 48 | 0 | 0.0 | 2.6 | 0.00 | 0.00 | 0.00 | 71 | 1014.1 |
| 20260507011859 | 48 | 353 | 0.0 | 1.7 | 0.00 | 0.00 | 0.00 | 71 | 1014.3 |
| 20260507011355 | 48 | 326 | 3.5 | 4.3 | 0.00 | 0.00 | 0.00 | 70 | 1014.1 |
| 20260507010849 | 48 | 280 | 1.7 | 4.3 | 0.00 | 0.00 | 0.00 | 70 | 1014.2 |
| 20260507010345 | 48 | 289 | 1.7 | 3.5 | 0.00 | 0.00 | 0.00 | 70 | 1014.1 |
| 20260507005843 | 48 | 0 | 1.7 | 2.6 | 0.00 | 0.00 | 0.00 | 70 | 1014.1 |
| 20260507005339 | 48 | 254 | 0.0 | 1.7 | 0.00 | 0.00 | 0.00 | 71 | 1013.9 |
| 20260507004836 | 48 | 287 | 0.0 | 3.5 | 0.00 | 0.00 | 0.00 | 70 | 1014.0 |
| 20260507004333 | 48 | 29 | 1.7 | 2.6 | 0.00 | 0.00 | 0.00 | 70 | 1014.0 |
| 20260507003830 | 48 | 253 | 0.0 | 2.6 | 0.00 | 0.00 | 0.00 | 71 | 1013.7 |
| 20260507003326 | 48 | 218 | 1.7 | 4.3 | 0.00 | 0.00 | 0.00 | 71 | 1013.5 |
| 20260507002821 | 48 | 261 | 0.0 | 4.3 | 0.00 | 0.00 | 0.00 | 70 | 1013.6 |
| 20260507002317 | 48 | 293 | 1.7 | 3.5 | 0.00 | 0.00 | 0.00 | 71 | 1014.0 |
| 20260507001815 | 48 | 229 | 0.9 | 5.2 | 0.00 | 0.00 | 0.00 | 71 | 1013.7 |
| 20260507001312 | 48 | 254 | 0.0 | 4.3 | 0.00 | 0.00 | 0.00 | 70 | 1013.7 |
| 20260507000808 | 48 | 279 | 2.6 | 6.1 | 0.00 | 0.00 | 0.00 | 69 | 1013.6 |
| 20260507000306 | 48 | 346 | 0.9 | 7.0 | 0.00 | 0.00 | 0.00 | 69 | 1013.7 |
| 20260506235800 | 48 | 265 | 1.7 | 6.1 | 0.00 | 0.00 | 0.00 | 68 | 1013.8 |
| 20260506235256 | 49 | 207 | 2.6 | 6.1 | 0.00 | 0.00 | 0.00 | 67 | 1013.5 |
| 20260506234754 | 49 | 253 | 2.6 | 5.2 | 0.00 | 0.00 | 0.00 | 68 | 1013.5 |
| 20260506234251 | 49 | 249 | 2.6 | 5.2 | 0.00 | 0.00 | 0.00 | 67 | 1013.5 |
| 20260506233748 | 50 | 295 | 1.7 | 4.3 | 0.00 | 0.00 | 0.00 | 67 | 1013.3 |
| 20260506233244 | 50 | 241 | 1.7 | 4.3 | 0.00 | 0.00 | 0.00 | 67 | 1013.4 |
| 20260506232741 | 49 | 173 | 2.6 | 4.3 | 0.00 | 0.00 | 0.00 | 67 | 1013.4 |
| 20260506232236 | 49 | 255 | 0.9 | 5.2 | 0.00 | 0.00 | 0.00 | 68 | 1013.4 |
| 20260506231734 | 49 | 187 | 3.5 | 4.3 | 0.00 | 0.00 | 0.00 | 68 | 1013.3 |
| 20260506231232 | 50 | 250 | 0.0 | 3.5 | 0.00 | 0.00 | 0.00 | 67 | 1013.3 |
| 20260506230728 | 49 | 216 | 1.7 | 5.2 | 0.00 | 0.00 | 0.00 | 66 | 1013.3 |
| 20260506230225 | 50 | 249 | 0.9 | 7.0 | 0.00 | 0.00 | 0.00 | 66 | 1013.3 |
| 20260506225721 | 50 | 178 | 2.6 | 2.6 | 0.00 | 0.00 | 0.00 | 65 | 1013.2 |
| 20260506225219 | 50 | 324 | 0.0 | 2.6 | 0.00 | 0.00 | 0.00 | 66 | 1013.3 |
| 20260506224715 | 50 | 241 | 0.0 | 5.2 | 0.00 | 0.00 | 0.00 | 66 | 1013.0 |
| 20260506224212 | 50 | 266 | 2.6 | 5.2 | 0.00 | 0.00 | 0.00 | 66 | 1013.0 |
| 20260506223708 | 49 | 258 | 2.6 | 5.2 | 0.00 | 0.00 | 0.00 | 66 | 1013.1 |
| 20260506223204 | 49 | 328 | 2.6 | 5.2 | 0.00 | 0.00 | 0.00 | 67 | 1012.9 |
| 20260506222702 | 49 | 253 | 2.6 | 4.3 | 0.00 | 0.00 | 0.00 | 66 | 1013.0 |
| 20260506222157 | 49 | 322 | 2.6 | 5.2 | 0.00 | 0.00 | 0.00 | 67 | 1013.0 |
| 20260506221655 | 50 | 177 | 4.3 | 4.3 | 0.00 | 0.00 | 0.00 | 65 | 1012.8 |
| 20260506221153 | 50 | 283 | 2.6 | 7.8 | 0.00 | 0.00 | 0.00 | 66 | 1012.9 |
| 20260506220649 | 50 | 236 | 1.7 | 4.3 | 0.00 | 0.00 | 0.00 | 66 | 1012.7 |
| 20260506220145 | 50 | 247 | 3.5 | 4.3 | 0.00 | 0.00 | 0.00 | 65 | 1012.6 |
| 20260506215642 | 50 | 188 | 2.6 | 7.8 | 0.00 | 0.00 | 0.00 | 65 | 1012.7 |
| 20260506215137 | 50 | 246 | 1.7 | 3.5 | 0.00 | 0.00 | 0.00 | 65 | 1012.7 |
| 20260506214634 | 50 | 195 | 5.2 | 8.7 | 0.00 | 0.00 | 0.00 | 65 | 1012.6 |
| 20260506214131 | 50 | 248 | 4.3 | 6.1 | 0.00 | 0.00 | 0.00 | 66 | 1012.7 |
| 20260506213630 | 50 | 195 | 2.6 | 7.8 | 0.00 | 0.00 | 0.00 | 66 | 1012.7 |
| 20260506213126 | 51 | 205 | 6.1 | 6.1 | 0.00 | 0.00 | 0.00 | 67 | 1012.4 |
| 20260506212624 | 50 | 253 | 4.3 | 7.8 | 0.00 | 0.00 | 0.00 | 66 | 1012.5 |
| 20260506212118 | 50 | 235 | 3.5 | 8.7 | 0.00 | 0.00 | 0.00 | 67 | 1012.4 |
| 20260506211614 | 50 | 266 | 2.6 | 4.3 | 0.00 | 0.00 | 0.00 | 66 | 1012.3 |
| 20260506211111 | 50 | 217 | 3.5 | 7.8 | 0.00 | 0.00 | 0.00 | 64 | 1012.2 |
| 20260506210608 | 50 | 253 | 4.3 | 9.6 | 0.00 | 0.00 | 0.00 | 64 | 1012.4 |
| 20260506210105 | 51 | 173 | 4.3 | 11.3 | 0.00 | 0.00 | 0.00 | 62 | 1011.9 |
| 20260506205602 | 52 | 177 | 9.6 | 17.4 | 0.00 | 0.00 | 0.00 | 59 | 1012.0 |
| 20260506205056 | 53 | 45 | 1.7 | 6.1 | 0.00 | 0.00 | 0.00 | 53 | 1012.1 |
| 20260506204555 | 55 | 121 | 2.6 | 4.3 | 0.00 | 0.00 | 0.00 | 52 | 1011.8 |
| 20260506204051 | 54 | 194 | 0.9 | 7.0 | 0.00 | 0.00 | 0.00 | 52 | 1012.0 |
| 20260506203550 | 53 | 175 | 2.6 | 7.8 | 0.00 | 0.00 | 0.00 | 54 | 1012.0 |
| 20260506203046 | 52 | 188 | 2.6 | 5.2 | 0.00 | 0.00 | 0.00 | 55 | 1012.0 |
| 20260506202544 | 52 | 152 | 2.6 | 3.5 | 0.00 | 0.00 | 0.00 | 55 | 1012.2 |
| 20260506202040 | 52 | 221 | 3.5 | 6.1 | 0.00 | 0.00 | 0.00 | 56 | 1011.9 |
| 20260506201538 | 51 | 148 | 5.2 | 7.8 | 0.00 | 0.00 | 0.00 | 55 | 1011.9 |
| 20260506201034 | 51 | 180 | 0.0 | 4.3 | 0.00 | 0.00 | 0.00 | 57 | 1012.0 |
| 20260506200530 | 51 | 139 | 1.7 | 3.5 | 0.00 | 0.00 | 0.00 | 57 | 1011.6 |
| 20260506200027 | 52 | 81 | 2.6 | 10.4 | 0.00 | 0.00 | 0.00 | 58 | 1012.2 |
| 20260506195524 | 51 | 151 | 6.1 | 6.1 | 0.00 | 0.00 | 0.00 | 56 | 1011.8 |
| 20260506195020 | 52 | 204 | 4.3 | 4.3 | 0.00 | 0.00 | 0.00 | 56 | 1011.9 |
| 20260506194518 | 51 | 152 | 2.6 | 5.2 | 0.00 | 0.00 | 0.00 | 58 | 1011.9 |
| 20260506194014 | 51 | 83 | 2.6 | 4.3 | 0.00 | 0.00 | 0.00 | 59 | 1011.6 |
| 20260506193512 | 51 | 94 | 2.6 | 3.5 | 0.00 | 0.00 | 0.00 | 58 | 1011.5 |
| 20260506193009 | 51 | 85 | 1.7 | 2.6 | 0.00 | 0.00 | 0.00 | 60 | 1011.5 |
| 20260506192505 | 51 | 45 | 2.6 | 7.0 | 0.00 | 0.00 | 0.00 | 60 | 1011.6 |
| 20260506192001 | 51 | 345 | 0.0 | 2.6 | 0.00 | 0.00 | 0.00 | 61 | 1011.8 |
| 20260506191458 | 50 | 353 | 0.0 | 4.3 | 0.00 | 0.00 | 0.00 | 62 | 1011.6 |
| 20260506190955 | 50 | 143 | 3.5 | 3.5 | 0.00 | 0.00 | 0.00 | 63 | 1011.5 |
| 20260506190452 | 50 | 114 | 0.9 | 4.3 | 0.00 | 0.00 | 0.00 | 63 | 1011.8 |
| 20260506185948 | 50 | 212 | 0.0 | 4.3 | 0.00 | 0.00 | 0.00 | 63 | 1011.8 |
| 20260506185446 | 49 | 160 | 4.3 | 7.0 | 0.00 | 0.00 | 0.00 | 63 | 1011.8 |
| 20260506184942 | 49 | 32 | 0.0 | 7.0 | 0.00 | 0.00 | 0.00 | 63 | 1011.9 |
| 20260506184439 | 50 | 140 | 2.6 | 4.3 | 0.00 | 0.00 | 0.00 | 63 | 1011.9 |
| 20260506183937 | 49 | 148 | 2.6 | 5.2 | 0.00 | 0.00 | 0.00 | 64 | 1011.8 |
| 20260506183432 | 49 | 0 | 1.7 | 3.5 | 0.00 | 0.00 | 0.00 | 65 | 1011.8 |
| 20260506182929 | 49 | 90 | 0.0 | 6.1 | 0.00 | 0.00 | 0.00 | 65 | 1011.9 |
| 20260506182426 | 48 | 159 | 1.7 | 4.3 | 0.00 | 0.00 | 0.00 | 65 | 1011.8 |
| 20260506181924 | 49 | 130 | 6.1 | 7.0 | 0.00 | 0.00 | 0.00 | 65 | 1011.6 |
| 20260506181422 | 49 | 151 | 1.7 | 3.5 | 0.00 | 0.00 | 0.00 | 65 | 1011.4 |
| 20260506180918 | 48 | 163 | 2.6 | 5.2 | 0.00 | 0.00 | 0.00 | 67 | 1011.9 |
| 20260506180414 | 49 | 45 | 1.7 | 2.6 | 0.00 | 0.00 | 0.00 | 67 | 1011.5 |
| 20260506175911 | 47 | 29 | 1.7 | 4.3 | 0.00 | 0.00 | 0.00 | 67 | 1011.6 |
| 20260506175408 | 48 | 123 | 3.5 | 5.2 | 0.00 | 0.00 | 0.00 | 67 | 1011.5 |
| 20260506174905 | 48 | 189 | 1.7 | 5.2 | 0.00 | 0.00 | 0.00 | 66 | 1011.5 |
| 20260506174403 | 48 | 163 | 2.6 | 4.3 | 0.00 | 0.00 | 0.00 | 66 | 1011.4 |
| 20260506173900 | 48 | 50 | 2.6 | 4.3 | 0.00 | 0.00 | 0.00 | 66 | 1011.5 |
| 20260506173356 | 48 | 90 | 0.9 | 2.6 | 0.00 | 0.00 | 0.00 | 67 | 1011.6 |
| 20260506172853 | 47 | 146 | 1.7 | 2.6 | 0.00 | 0.00 | 0.00 | 69 | 1011.3 |
| 20260506172350 | 46 | 52 | 1.7 | 1.7 | 0.00 | 0.00 | 0.00 | 72 | 1011.5 |
| 20260506171847 | 46 | 32 | 0.0 | 2.6 | 0.00 | 0.00 | 0.00 | 73 | 1011.5 |
| 20260506171344 | 46 | 23 | 0.0 | 2.6 | 0.00 | 0.00 | 0.00 | 73 | 1011.6 |
| 20260506170842 | 46 | 102 | 0.9 | 3.5 | 0.00 | 0.00 | 0.00 | 74 | 1011.6 |
| 20260506170338 | 45 | 74 | 0.0 | 1.7 | 0.00 | 0.00 | 0.00 | 74 | 1011.6 |
| 20260506165837 | 45 | 180 | 0.0 | 2.6 | 0.00 | 0.00 | 0.00 | 75 | 1011.3 |
| 20260506165335 | 45 | 185 | 2.6 | 2.6 | 0.00 | 0.00 | 0.00 | 75 | 1011.5 |
| 20260506164831 | 45 | 145 | 0.9 | 2.6 | 0.00 | 0.00 | 0.00 | 76 | 1011.4 |
| 20260506164328 | 44 | 158 | 0.0 | 2.6 | 0.00 | 0.00 | 0.00 | 77 | 1011.2 |
| 20260506163825 | 44 | 75 | 0.9 | 2.6 | 0.00 | 0.00 | 0.00 | 77 | 1011.4 |
| 20260506163320 | 44 | 66 | 0.9 | 1.7 | 0.00 | 0.00 | 0.00 | 77 | 1011.4 |
| 20260506162815 | 44 | 0 | 0.0 | 2.6 | 0.00 | 0.00 | 0.00 | 78 | 1011.5 |
| 20260506162314 | 44 | 68 | 0.0 | 1.7 | 0.00 | 0.00 | 0.00 | 80 | 1011.3 |
| 20260506161811 | 44 | 66 | 0.0 | 1.7 | 0.00 | 0.00 | 0.00 | 80 | 1011.2 |
| 20260506161308 | 44 | 144 | 1.7 | 1.7 | 0.00 | 0.00 | 0.00 | 80 | 1011.5 |
| 20260506160806 | 43 | 126 | 0.0 | 2.6 | 0.00 | 0.00 | 0.00 | 79 | 1011.4 |
| 20260506160302 | 44 | 124 | 1.7 | 1.7 | 0.00 | 0.00 | 0.00 | 80 | 1011.2 |
| 20260506155801 | 43 | 69 | 0.0 | 0.9 | 0.00 | 0.00 | 0.00 | 81 | 1011.3 |
| 20260506155257 | 43 | 131 | 0.9 | 1.7 | 0.00 | 0.00 | 0.00 | 81 | 1011.4 |
| 20260506153410 | 42 | 12 | 0.9 | 1.7 | 0.00 | 0.00 | 0.00 | 84 | 1011.3 |
| 20260506152907 | 42 | 41 | 0.0 | 1.7 | 0.00 | 0.00 | 0.00 | 85 | 1011.2 |
| 20260506152404 | 42 | 71 | 0.0 | 1.7 | 0.00 | 0.00 | 0.00 | 87 | 1011.3 |
| 20260506151903 | 41 | 75 | 0.0 | 1.7 | 0.00 | 0.00 | 0.00 | 88 | 1011.4 |
| 20260506151359 | 41 | 98 | 0.0 | 0.9 | 0.00 | 0.00 | 0.00 | 90 | 1011.2 |
| 20260506150857 | 41 | 165 | 0.0 | 0.9 | 0.00 | 0.00 | 0.00 | 89 | 1011.1 |
| 20260506150353 | 41 | 77 | 0.0 | 0.0 | 0.00 | 0.00 | 0.00 | 89 | 1011.3 |
| 20260506145850 | 41 | 77 | 0.0 | 0.9 | 0.00 | 0.00 | 0.00 | 89 | 1011.2 |
| 20260506145346 | 41 | 14 | 0.0 | 0.0 | 0.00 | 0.00 | 0.00 | 88 | 1011.1 |
| 20260506144844 | 41 | 14 | 0.0 | 0.0 | 0.00 | 0.00 | 0.00 | 87 | 1011.2 |
| 20260506144340 | 41 | 14 | 0.0 | 0.0 | 0.00 | 0.00 | 0.00 | 87 | 1011.2 |
| 20260506143838 | 41 | 14 | 0.0 | 0.0 | 0.00 | 0.00 | 0.00 | 88 | 1011.3 |
| 20260506143335 | 40 | 14 | 0.0 | 0.0 | 0.00 | 0.00 | 0.00 | 88 | 1011.0 |
| 20260506142833 | 40 | 14 | 0.0 | 0.0 | 0.00 | 0.00 | 0.00 | 89 | 1011.2 |
| 20260506142331 | 40 | 14 | 0.0 | 0.0 | 0.00 | 0.00 | 0.00 | 88 | 1011.2 |
| 20260506141829 | 40 | 14 | 0.0 | 0.0 | 0.00 | 0.00 | 0.00 | 89 | 1011.2 |
| 20260506141327 | 40 | 14 | 0.0 | 0.0 | 0.00 | 0.00 | 0.00 | 89 | 1011.0 |
| 20260506140825 | 39 | 14 | 0.0 | 0.0 | 0.00 | 0.00 | 0.00 | 90 | 1011.4 |
| 20260506140321 | 39 | 14 | 0.0 | 0.0 | 0.00 | 0.00 | 0.00 | 91 | 1011.4 |
| 20260506135818 | 39 | 14 | 0.0 | 0.0 | 0.00 | 0.00 | 0.00 | 91 | 1011.3 |
| 20260506135314 | 39 | 14 | 0.0 | 0.9 | 0.00 | 0.00 | 0.00 | 91 | 1011.5 |
| 20260506134811 | 39 | 74 | 0.0 | 0.0 | 0.00 | 0.00 | 0.00 | 91 | 1011.1 |
| 20260506134308 | 39 | 74 | 0.0 | 0.0 | 0.00 | 0.00 | 0.00 | 90 | 1011.1 |
| 20260506133805 | 39 | 74 | 0.0 | 0.0 | 0.00 | 0.00 | 0.00 | 90 | 1011.2 |
| 20260506133302 | 39 | 74 | 0.0 | 0.0 | 0.00 | 0.00 | 0.00 | 90 | 1011.1 |
| 20260506132758 | 40 | 74 | 0.0 | 0.0 | 0.00 | 0.00 | 0.00 | 90 | 1011.3 |
| 20260506132255 | 40 | 74 | 0.0 | 0.0 | 0.00 | 0.00 | 0.00 | 88 | 1011.3 |
| 20260506131754 | 41 | 75 | 0.0 | 0.0 | 0.00 | 0.00 | 0.00 | 88 | 1011.1 |
| 20260506131249 | 41 | 75 | 0.0 | 0.0 | 0.00 | 0.00 | 0.00 | 88 | 1011.1 |
| 20260506130746 | 41 | 75 | 0.0 | 0.9 | 0.00 | 0.00 | 0.00 | 88 | 1010.9 |
| 20260506130243 | 41 | 15 | 0.0 | 0.0 | 0.00 | 0.00 | 0.00 | 87 | 1011.1 |
| 20260506125741 | 42 | 15 | 0.0 | 0.0 | 0.00 | 0.00 | 0.00 | 85 | 1011.1 |
| 20260506125239 | 42 | 15 | 0.0 | 0.0 | 0.00 | 0.00 | 0.00 | 84 | 1011.3 |
| 20260506124737 | 41 | 15 | 0.0 | 0.0 | 0.00 | 0.00 | 0.00 | 85 | 1011.2 |
| 20260506124234 | 42 | 15 | 0.0 | 0.9 | 0.00 | 0.00 | 0.00 | 85 | 1011.1 |
| 20260506123731 | 41 | 23 | 0.0 | 0.0 | 0.00 | 0.00 | 0.00 | 84 | 1011.2 |
| 20260506123230 | 42 | 23 | 0.0 | 0.0 | 0.00 | 0.00 | 0.00 | 84 | 1011.0 |
| 20260506122726 | 42 | 23 | 0.0 | 0.9 | 0.00 | 0.00 | 0.00 | 82 | 1011.0 |
| 20260506122224 | 42 | 20 | 0.0 | 0.0 | 0.00 | 0.00 | 0.00 | 82 | 1011.0 |
| 20260506121722 | 42 | 26 | 1.7 | 2.6 | 0.00 | 0.00 | 0.00 | 80 | 1011.1 |
| 20260506121218 | 42 | 29 | 0.0 | 0.9 | 0.00 | 0.00 | 0.00 | 78 | 1011.1 |
| 20260506120716 | 42 | 73 | 0.0 | 1.7 | 0.00 | 0.00 | 0.00 | 77 | 1011.0 |
| 20260506120213 | 43 | 7 | 0.0 | 1.7 | 0.00 | 0.00 | 0.00 | 77 | 1010.9 |
| 20260506115711 | 43 | 6 | 0.9 | 2.6 | 0.00 | 0.00 | 0.00 | 74 | 1010.9 |
| 20260506115209 | 44 | 312 | 0.0 | 3.5 | 0.00 | 0.00 | 0.00 | 73 | 1010.9 |
| 20260506114706 | 44 | 289 | 0.9 | 0.9 | 0.00 | 0.00 | 0.00 | 72 | 1010.8 |
| 20260506114204 | 44 | 189 | 2.6 | 2.6 | 0.00 | 0.00 | 0.00 | 72 | 1010.7 |
| 20260506113703 | 44 | 18 | 0.0 | 1.7 | 0.00 | 0.00 | 0.00 | 71 | 1010.8 |
| 20260506113200 | 44 | 54 | 0.0 | 1.7 | 0.00 | 0.00 | 0.00 | 73 | 1010.6 |
| 20260506112655 | 44 | 30 | 1.7 | 1.7 | 0.00 | 0.00 | 0.00 | 73 | 1010.6 |